Simultaneous Nadir Overpasses (SNOs) Predictions

Prediction of SNOs between LANDSAT-8 and METOP-B Satellite Orbit:

Table of predicted SNOs for the next 14.0 days since TLE Epoch: 7/29/2015
Index Date (LANDSAT-8) Time (LANDSAT-8) Lat,Lon (LANDSAT-8) SZA (LANDSAT-8 ) Date (METOP-B) Time (METOP-B) Lat,Lon (METOP-B) SZA (METOP-B ) Distance(km) Time Diff (sec)
1 07/31/2015 04:07:04 -81.14, -21.53 115.21 07/31/2015 04:06:53 -81.13, -21.67 115.24 2.65 11
2 07/31/2015 04:56:30 81.14, 146.22 64.82 07/31/2015 04:57:32 81.15, 146.23 64.85 0.52 62
3 08/02/2015 23:41:20 -81.13, 44.77 114.52 08/02/2015 23:41:15 -81.12, 44.60 114.54 2.91 5
4 08/03/2015 00:30:45 81.16,-147.14 65.56 08/03/2015 00:31:53 81.16,-147.16 65.58 0.33 68
5 08/05/2015 18:26:08 81.12, -56.60 66.20 08/05/2015 18:24:55 81.12, -56.58 66.17 0.34 73
6
